DW3420 Weather Reports


time (UTC)temp
F
wind
direction
speed
knots
gust
knots
rain 1hr
in
rain 24hr
in
rain mn
in
humidity
%
barometer
mb
20260906070046 75 345 0.9 0.9 0.00 0.00 0.00 88 1012.1
20260906065527 75 345 0.0 1.7 0.00 0.00 0.00 89 1012.3
20260906065029 75 345 0.0 1.7 0.00 0.00 0.00 88 1012.4
20260906064521 75 345 0.0 0.9 0.00 0.00 0.00 88 1012.3
20260906064024 75 345 0.0 1.7 0.00 0.00 0.00 88 1012.2
20260906063526 75 345 0.9 2.6 0.00 0.00 0.00 88 1012.3
20260906063040 75 346 0.9 2.6 0.00 0.00 0.00 88 1012.3
20260906062552 75 346 0.9 3.5 0.00 0.00 0.00 87 1012.1
20260906062031 76 322 0.0 0.9 0.00 0.00 0.00 89 1012.0
20260906061524 76 322 0.0 0.0 0.00 0.00 0.00 89 1011.9
20260906061027 76 322 0.0 0.0 0.00 0.00 0.00 89 1011.9
20260906060529 76 322 0.0 0.0 0.00 0.00 0.00 89 1012.0
20260906060025 76 322 0.0 0.0 0.00 0.00 0.00 88 1012.0
20260906055531 76 322 0.0 0.0 0.00 0.00 0.00 87 1012.1
20260906055033 76 322 0.0 0.0 0.00 0.00 0.00 85 1012.2
20260906054525 77 322 0.0 0.0 0.00 0.00 0.00 84 1012.0
20260906054030 77 322 0.0 2.6 0.00 0.00 0.00 82 1012.0
20260906053532 78 322 0.9 4.3 0.00 0.00 0.00 82 1012.0
20260906053055 79 323 3.5 4.3 0.00 0.00 0.00 79 1012.0
20260906052525 79 216 1.7 2.6 0.00 0.00 0.00 80 1011.8
20260906052027 79 215 0.9 1.7 0.00 0.00 0.00 81 1011.5
20260906051530 79 227 0.9 1.7 0.00 0.00 0.00 82 1011.4
20260906051025 78 290 0.9 1.7 0.00 0.00 0.00 81 1011.5
20260906050519 79 290 0.9 1.7 0.00 0.00 0.00 82 1011.4
20260906050020 79 290 0.9 1.7 0.00 0.00 0.00 82 1011.6
20260906045545 79 290 0.9 1.7 0.00 0.00 0.00 81 1011.5
20260906045015 79 290 0.9 1.7 0.00 0.00 0.00 81 1011.6
20260906044517 79 290 0.9 1.7 0.00 0.00 0.00 80 1011.7
20260906044019 79 290 0.9 1.7 0.00 0.00 0.00 80 1011.8
20260906043531 79 290 0.0 1.7 0.00 0.00 0.00 80 1011.9
20260906043024 79 290 0.0 0.0 0.00 0.00 0.00 80 1011.9
20260906042525 79 290 0.0 0.9 0.00 0.00 0.00 79 1011.9
20260906042016 79 290 0.0 1.7 0.00 0.00 0.00 79 1011.8
20260906041518 79 290 0.0 1.7 0.00 0.00 0.00 79 1011.8
20260906041040 79 290 0.9 1.7 0.00 0.00 0.00 80 1011.8
20260906040541 79 290 0.9 1.7 0.00 0.00 0.00 80 1011.9
20260906040018 79 290 0.9 1.7 0.00 0.00 0.00 79 1012.0
20260906035533 80 290 0.9 1.7 0.00 0.00 0.00 79 1012.0
20260906035016 80 290 0.9 1.7 0.00 0.00 0.00 79 1012.2
20260906034527 80 290 0.9 1.7 0.00 0.00 0.00 79 1012.0
20260906034030 80 290 0.9 1.7 0.00 0.00 0.00 79 1012.0
20260906033553 80 290 0.9 1.7 0.00 0.00 0.00 78 1012.2
20260906033015 80 290 0.9 1.7 0.00 0.00 0.00 77 1012.0
20260906032518 80 290 0.0 1.7 0.00 0.00 0.00 78 1012.0
20260906032025 80 290 0.0 1.7 0.00 0.00 0.00 78 1012.0
20260906031515 80 290 0.0 1.7 0.00 0.00 0.00 77 1011.8
20260906031047 80 290 0.0 1.7 0.00 0.00 0.00 77 1012.0
20260906030531 80 290 0.9 0.9 0.00 0.00 0.00 77 1011.9
20260906030033 80 290 0.0 0.9 0.00 0.00 0.00 76 1011.9
20260906025523 81 290 0.0 1.7 0.00 0.00 0.00 76 1011.9
20260906025026 81 290 0.9 3.5 0.00 0.00 0.00 76 1011.8
20260906024518 81 290 0.9 3.5 0.00 0.00 0.00 75 1011.8
20260906024027 80 291 0.0 1.7 0.00 0.00 0.00 76 1011.7
20260906023530 80 290 0.0 0.9 0.00 0.00 0.00 75 1011.6
20260906023032 80 290 0.0 0.9 0.00 0.00 0.00 75 1011.4
20260906022521 80 290 0.0 0.9 0.00 0.00 0.00 76 1011.3
20260906022022 80 290 0.0 0.9 0.00 0.00 0.00 76 1011.4
20260906021517 80 290 0.0 1.7 0.00 0.00 0.00 76 1011.4
20260906021049 80 291 0.9 1.7 0.00 0.00 0.00 75 1011.4
20260906020549 81 310 0.0 0.9 0.00 0.00 0.00 75 1011.5
20260906020020 80 310 0.0 1.7 0.00 0.00 0.00 74 1011.5
20260906015552 80 310 0.9 1.7 0.00 0.00 0.00 75 1011.4
20260906015033 80 310 0.0 0.0 0.00 0.00 0.00 74 1011.4
20260906014534 80 310 0.0 0.9 0.00 0.00 0.00 73 1011.3
20260906014016 80 310 0.0 0.9 0.00 0.00 0.00 73 1011.2
20260906013528 80 310 0.0 0.9 0.00 0.00 0.00 73 1011.2
20260906013030 80 310 0.0 0.0 0.00 0.00 0.00 74 1011.1
20260906012532 80 310 0.0 0.0 0.00 0.00 0.00 74 1011.1
20260906012021 81 310 0.0 0.0 0.00 0.00 0.00 73 1010.9
20260906011527 81 310 0.0 0.9 0.00 0.00 0.00 73 1010.8
20260906011020 81 310 0.0 0.9 0.00 0.00 0.00 72 1010.8
20260906010521 81 310 0.9 0.9 0.00 0.00 0.00 72 1010.8
20260906010022 81 310 0.0 0.9 0.00 0.00 0.00 71 1010.6
20260906005534 82 310 0.0 0.9 0.00 0.00 0.00 70 1010.6
20260906005016 82 310 0.0 0.9 0.00 0.00 0.00 70 1010.6
20260906004538 82 310 0.9 1.7 0.00 0.00 0.00 69 1010.6
20260906004029 82 310 0.0 1.7 0.00 0.00 0.00 69 1010.6
20260906003535 82 310 0.0 0.0 0.00 0.00 0.00 68 1010.5
20260906003021 82 310 0.0 0.0 0.00 0.00 0.00 67 1010.5
20260906002517 83 310 0.0 0.9 0.00 0.00 0.00 67 1010.6
20260906002019 83 310 0.0 1.7 0.00 0.00 0.00 66 1010.6
20260906001521 83 310 0.9 1.7 0.00 0.00 0.00 66 1010.6
20260906001032 83 310 0.0 1.7 0.00 0.00 0.00 67 1010.6
20260906000536 84 310 0.9 1.7 0.00 0.00 0.00 67 1010.7
20260906000016 84 310 0.9 1.7 0.00 0.00 0.00 67 1010.8
20260905235517 84 310 0.9 1.7 0.00 0.00 0.00 67 1010.8
20260905235030 85 310 0.0 5.2 0.00 0.00 0.00 65 1010.8
20260905234541 85 310 1.7 5.2 0.00 0.00 0.00 64 1010.9
20260905234041 86 269 1.7 7.0 0.00 0.00 0.00 63 1011.1
20260905233527 87 227 1.7 7.0 0.00 0.00 0.00 62 1011.2
20260905233020 88 287 1.7 3.5 0.00 0.00 0.00 65 1011.2
20260905232527 88 251 0.9 0.9 0.00 0.00 0.00 63 1010.8
20260905232029 88 251 0.0 0.9 0.00 0.00 0.00 64 1010.8
20260905231541 88 251 0.0 1.7 0.00 0.00 0.00 63 1010.9
20260905231022 89 251 0.9 1.7 0.00 0.00 0.00 63 1010.7
20260905230524 89 251 0.9 1.7 0.00 0.00 0.00 62 1010.7
20260905230026 88 251 0.0 2.6 0.00 0.00 0.00 61 1010.7
20260905225528 88 251 0.9 2.6 0.00 0.00 0.00 60 1010.5
20260905225021 88 251 0.0 0.9 0.00 0.00 0.00 59 1010.3
20260905224522 88 251 0.0 1.7 0.00 0.00 0.00 60 1010.4
20260905224049 88 251 0.9 1.7 0.00 0.00 0.00 60 1010.4
20260905223520 88 251 0.0 0.9 0.00 0.00 0.00 60 1010.4
20260905223022 88 251 0.0 2.6 0.00 0.00 0.00 61 1010.5
20260905222528 88 251 0.9 2.6 0.00 0.00 0.00 60 1010.4
20260905222020 88 232 0.9 2.6 0.00 0.00 0.00 60 1010.3
20260905221522 89 220 0.9 4.3 0.00 0.00 0.00 57 1010.4
20260905221023 89 222 1.7 4.3 0.00 0.00 0.00 55 1010.5
20260905220517 91 149 0.9 5.2 0.00 0.00 0.00 53 1010.7
20260905220020 93 194 0.9 5.2 0.00 0.00 0.00 52 1010.7
20260905215522 94 194 1.7 5.2 0.00 0.00 0.00 50 1010.7
20260905215034 95 240 2.6 6.1 0.00 0.00 0.00 50 1010.6
20260905214536 96 215 1.7 4.3 0.00 0.00 0.00 50 1010.6
20260905214017 96 217 1.7 4.3 0.00 0.00 0.00 50 1010.6
20260905213550 96 165 1.7 3.5 0.00 0.00 0.00 49 1010.5
20260905213015 96 216 0.9 2.6 0.00 0.00 0.00 52 1010.5
20260905212517 96 215 0.9 2.6 0.00 0.00 0.00 50 1010.5
20260905212049 96 215 0.9 2.6 0.00 0.00 0.00 51 1010.5
20260905211531 96 215 1.7 3.5 0.00 0.00 0.00 51 1010.5
20260905211033 96 54 1.7 3.5 0.00 0.00 0.00 53 1010.4
20260905210546 95 81 0.9 4.3 0.00 0.00 0.00 52 1010.4
20260905210027 95 216 1.7 4.3 0.00 0.00 0.00 51 1010.4
20260905205529 95 236 0.9 2.6 0.00 0.00 0.00 54 1010.5
20260905205019 95 236 0.9 4.3 0.00 0.00 0.00 52 1010.6
20260905204522 95 214 1.7 4.3 0.00 0.00 0.00 53 1010.7
20260905204024 95 165 1.7 2.6 0.00 0.00 0.00 51 1010.7
20260905203545 95 163 0.9 5.2 0.00 0.00 0.00 52 1010.8
20260905203016 95 188 2.6 5.2 0.00 0.00 0.00 52 1010.9
20260905202521 95 229 0.9 5.2 0.00 0.00 0.00 53 1010.9
20260905202022 95 241 1.7 2.6 0.00 0.00 0.00 51 1010.9
20260905201536 95 221 1.7 3.5 0.00 0.00 0.00 51 1011.1
20260905201017 96 267 2.6 3.5 0.00 0.00 0.00 51 1011.1
20260905200520 96 284 0.9 2.6 0.00 0.00 0.00 50 1011.2
20260905200021 96 284 1.7 2.6 0.00 0.00 0.00 50 1011.3
20260905195523 96 294 0.9 3.5 0.00 0.00 0.00 51 1011.3
20260905195015 96 184 1.7 3.5 0.00 0.00 0.00 50 1011.4
20260905194518 96 309 1.7 3.5 0.00 0.00 0.00 51 1011.6
20260905194020 97 246 1.7 3.5 0.00 0.00 0.00 51 1011.6
20260905193532 97 238 1.7 3.5 0.00 0.00 0.00 51 1011.7
20260905193018 96 146 1.7 3.5 0.00 0.00 0.00 53 1011.6
20260905192519 97 267 1.7 5.2 0.00 0.00 0.00 50 1011.7
20260905192023 96 142 1.7 5.2 0.00 0.00 0.00 52 1011.7
20260905191524 96 287 1.7 3.5 0.00 0.00 0.00 51 1011.8
20260905191025 97 111 0.9 3.5 0.00 0.00 0.00 53 1011.9
20260905190539 96 350 1.7 3.5 0.00 0.00 0.00 55 1012.0
20260905190017 96 261 1.7 4.3 0.00 0.00 0.00 52 1012.1
20260905185529 96 32 0.9 3.5 0.00 0.00 0.00 53 1012.2
20260905185031 96 5 1.7 4.3 0.00 0.00 0.00 52 1012.3
20260905184532 96 304 1.7 4.3 0.00 0.00 0.00 53 1012.4
20260905184024 96 240 2.6 4.3 0.00 0.00 0.00 52 1012.4
20260905183526 96 119 0.9 4.3 0.00 0.00 0.00 54 1012.4
20260905183022 95 288 2.6 4.3 0.00 0.00 0.00 54 1012.4
20260905182523 95 204 2.6 4.3 0.00 0.00 0.00 53 1012.5
20260905182045 96 265 1.7 3.5 0.00 0.00 0.00 53 1012.6
20260905181516 96 313 0.9 3.5 0.00 0.00 0.00 54 1012.7
20260905181048 96 250 1.7 5.2 0.00 0.00 0.00 53 1012.7
20260905180529 96 203 0.9 5.2 0.00 0.00 0.00 54 1012.8
20260905180030 96 85 0.9 2.6 0.00 0.00 0.00 53 1012.9
20260905175522 96 324 1.7 3.5 0.00 0.00 0.00 53 1012.9
20260905175025 96 84 0.9 3.5 0.00 0.00 0.00 55 1012.9
20260905174527 95 248 1.7 4.3 0.00 0.00 0.00 55 1012.9
20260905174039 95 232 0.9 4.3 0.00 0.00 0.00 56 1013.0
20260905173519 95 36 0.9 2.6 0.00 0.00 0.00 56 1013.0
20260905173026 94 63 1.7 4.3 0.00 0.00 0.00 58 1013.0
20260905172517 94 91 1.7 4.3 0.00 0.00 0.00 56 1013.1
20260905172020 94 312 1.7 5.2 0.00 0.00 0.00 56 1013.2
20260905171522 94 57 1.7 3.5 0.00 0.00 0.00 59 1013.2
20260905171034 93 65 0.9 2.6 0.00 0.00 0.00 58 1013.3
20260905170515 93 80 0.9 3.5 0.00 0.00 0.00 58 1013.3
20260905170037 93 298 1.7 2.6 0.00 0.00 0.00 60 1013.3
20260905165527 93 264 1.7 2.6 0.00 0.00 0.00 60 1013.4
20260905165029 93 236 1.7 3.5 0.00 0.00 0.00 61 1013.4
20260905164532 93 56 0.9 3.5 0.00 0.00 0.00 60 1013.5
20260905164053 92 334 1.7 2.6 0.00 0.00 0.00 60 1013.6
20260905163534 92 105 0.9 4.3 0.00 0.00 0.00 61 1013.8
20260905163037 91 296 0.9 2.6 0.00 0.00 0.00 62 1013.8
20260905162532 91 65 0.9 2.6 0.00 0.00 0.00 62 1013.8
20260905162033 91 300 1.7 2.6 0.00 0.00 0.00 63 1013.9
20260905161535 91 273 1.7 2.6 0.00 0.00 0.00 64 1013.9
20260905161026 90 189 0.9 2.6 0.00 0.00 0.00 63 1014.0
20260905160528 90 341 1.7 2.6 0.00 0.00 0.00 66 1014.0
20260905160030 89 307 1.7 3.5 0.00 0.00 0.00 65 1014.0
20260905155522 89 307 1.7 3.5 0.00 0.00 0.00 65 1014.1
20260905155035 89 233 0.9 2.6 0.00 0.00 0.00 65 1014.1
20260905154527 89 274 0.9 2.6 0.00 0.00 0.00 65 1014.1
20260905154029 88 273 0.9 2.6 0.00 0.00 0.00 66 1014.1
20260905153516 88 288 0.9 2.6 0.00 0.00 0.00 68 1014.1
20260905153027 87 288 1.7 2.6 0.00 0.00 0.00 69 1014.0
20260905152530 87 304 1.7 2.6 0.00 0.00 0.00 68 1014.1
20260905152055 87 27 0.9 2.6 0.00 0.00 0.00 69 1014.1
20260905151525 86 28 0.9 2.6 0.00 0.00 0.00 65 1014.1
20260905151027 86 27 0.9 1.7 0.00 0.00 0.00 68 1014.1
20260905150529 85 27 0.9 1.7 0.00 0.00 0.00 70 1014.0
20260905150030 85 27 0.9 1.7 0.00 0.00 0.00 71 1014.0
20260905145521 84 28 0.9 1.7 0.00 0.00 0.00 72 1014.0
20260905145024 84 28 0.9 1.7 0.00 0.00 0.00 70 1014.0
20260905144534 84 23 0.9 1.7 0.00 0.00 0.00 72 1014.0
20260905144025 84 23 0.9 1.7 0.00 0.00 0.00 73 1014.0
20260905143521 84 23 0.9 1.7 0.00 0.00 0.00 73 1014.1
20260905143023 84 23 0.9 2.6 0.00 0.00 0.00 72 1014.1
20260905142555 83 23 0.9 2.6 0.00 0.00 0.00 74 1014.1
20260905142026 83 24 0.0 1.7 0.00 0.00 0.00 74 1014.2
20260905141530 82 24 0.9 1.7 0.00 0.00 0.00 74 1014.2
20260905141032 82 24 0.0 1.7 0.00 0.00 0.00 76 1014.2
20260905140524 82 25 0.9 1.7 0.00 0.00 0.00 80 1014.1
20260905140026 81 25 0.0 0.9 0.00 0.00 0.00 78 1014.2
20260905135528 81 25 0.9 1.7 0.00 0.00 0.00 80 1014.3
20260905135050 81 25 0.0 1.7 0.00 0.00 0.00 84 1014.3
20260905134540 80 25 0.9 1.7 0.00 0.00 0.00 84 1014.4
20260905134020 80 25 0.0 1.7 0.00 0.00 0.00 85 1014.3
20260905133542 79 25 0.0 0.0 0.00 0.00 0.00 86 1014.3
20260905133025 79 25 0.0 0.0 0.00 0.00 0.00 86 1014.3
20260905132518 79 25 0.0 0.0 0.00 0.00 0.00 87 1014.4
20260905132050 78 25 0.0 0.0 0.00 0.00 0.00 88 1014.4
20260905131531 78 25 0.0 0.0 0.00 0.00 0.00 87 1014.4
20260905131033 78 25 0.0 0.0 0.00 0.00 0.00 87 1014.4
20260905130525 78 25 0.0 0.0 0.00 0.00 0.00 88 1014.4
20260905130027 77 25 0.0 0.0 0.00 0.00 0.00 88 1014.4
20260905125529 77 25 0.0 0.0 0.00 0.00 0.00 88 1014.4
20260905125021 77 25 0.0 0.0 0.00 0.00 0.00 88 1014.4
20260905124523 77 25 0.0 0.0 0.00 0.00 0.00 88 1014.4
20260905124025 77 25 0.0 0.0 0.00 0.00 0.00 88 1014.5
20260905123521 77 25 0.0 0.0 0.00 0.00 0.00 88 1014.5
20260905123023 77 25 0.0 0.0 0.00 0.00 0.00 88 1014.4
20260905122515 76 25 0.0 0.0 0.00 0.00 0.00 88 1014.4
20260905122028 76 25 0.0 0.9 0.00 0.00 0.00 87 1014.3
20260905121530 77 25 0.0 0.9 0.00 0.00 0.00 87 1014.2
20260905121032 77 25 0.0 0.9 0.00 0.00 0.00 87 1014.1
20260905120544 77 25 0.0 0.0 0.00 0.00 0.00 87 1014.0
20260905120025 76 25 0.0 0.0 0.00 0.00 0.00 87 1013.9
20260905115527 76 25 0.0 0.0 0.00 0.00 0.00 87 1013.9
20260905115017 76 25 0.0 0.0 0.00 0.00 0.00 87 1013.9
20260905114523 76 25 0.0 0.0 0.00 0.00 0.00 88 1013.8
20260905114015 76 25 0.0 0.0 0.00 0.00 0.00 87 1013.8
20260905113546 76 25 0.0 0.0 0.00 0.00 0.00 87 1013.6
20260905113027 76 5 0.0 0.0 0.00 0.00 0.00 87 1013.5
20260905112529 76 5 0.0 0.0 0.00 0.00 0.00 87 1013.5
20260905112021 76 315 0.0 0.0 0.00 0.00 0.00 87 1013.4
20260905111523 76 315 0.0 0.0 0.00 0.00 0.00 87 1013.4
20260905111015 76 315 0.0 0.0 0.00 0.00 0.00 87 1013.3
20260905110547 76 315 0.0 0.0 0.00 0.00 0.00 86 1013.3
20260905110028 76 315 0.0 0.0 0.00 0.00 0.00 86 1013.2
20260905105530 76 315 0.0 0.0 0.00 0.00 0.00 87 1013.2
20260905105026 76 315 0.0 0.0 0.00 0.00 0.00 87 1013.2
20260905104526 76 315 0.0 0.0 0.00 0.00 0.00 87 1013.2
20260905104018 76 315 0.0 0.0 0.00 0.00 0.00 87 1013.1
20260905103530 76 315 0.0 0.0 0.00 0.00 0.00 87 1013.0
20260905103033 76 315 0.0 0.0 0.00 0.00 0.00 87 1013.0
20260905102554 76 315 0.0 0.0 0.00 0.00 0.00 87 1013.0
20260905102026 76 315 0.0 0.0 0.00 0.00 0.00 87 1012.9
20260905101528 76 315 0.0 0.0 0.00 0.00 0.00 87 1012.9
20260905101050 76 315 0.0 0.0 0.00 0.00 0.00 87 1012.8
20260905100522 76 315 0.0 0.0 0.00 0.00 0.00 88 1012.9
20260905100024 76 315 0.0 0.0 0.00 0.00 0.00 88 1012.9
20260905095527 76 315 0.0 0.0 0.00 0.00 0.00 88 1012.9
20260905095043 76 315 0.0 0.0 0.00 0.00 0.00 88 1012.9
20260905094544 76 315 0.0 0.0 0.00 0.00 0.00 87 1012.9
20260905094015 76 315 0.0 0.0 0.00 0.00 0.00 87 1012.9
20260905093527 76 315 0.0 0.0 0.00 0.00 0.00 87 1012.9
20260905093030 76 315 0.0 0.0 0.00 0.00 0.00 87 1012.9
20260905092533 77 315 0.0 0.0 0.00 0.00 0.00 87 1012.9
20260905092046 77 315 0.0 0.0 0.00 0.00 0.00 87 1012.9
20260905091528 77 315 0.0 0.0 0.00 0.00 0.00 87 1012.9
20260905091031 77 315 0.0 0.0 0.00 0.00 0.00 87 1012.9
20260905090523 77 315 0.0 0.0 0.00 0.00 0.00 87 1012.8
20260905090026 77 315 0.0 0.0 0.00 0.00 0.00 88 1012.8
20260905085529 77 315 0.0 0.0 0.00 0.00 0.00 87 1012.8
20260905085026 77 315 0.0 0.0 0.00 0.00 0.00 87 1012.7
20260905084529 77 315 0.0 0.0 0.00 0.00 0.00 86 1012.8
20260905084032 77 315 0.0 0.0 0.00 0.00 0.00 86 1012.9
20260905083525 77 315 0.0 0.0 0.00 0.00 0.00 87 1012.9
20260905083028 77 315 0.0 0.0 0.00 0.00 0.00 87 1012.8
20260905082531 77 315 0.0 0.0 0.00 0.00 0.00 87 1012.8
20260905082024 77 315 0.0 0.0 0.00 0.00 0.00 87 1012.8
20260905081547 77 315 0.0 0.0 0.00 0.00 0.00 87 1012.7
20260905081029 77 315 0.0 0.0 0.00 0.00 0.00 86 1012.6
20260905080521 77 315 0.0 0.0 0.00 0.00 0.00 86 1012.5
20260905080016 77 315 0.0 0.0 0.00 0.00 0.00 86 1012.5
20260905075518 77 315 0.0 0.0 0.00 0.00 0.00 86 1012.6
20260905075019 77 315 0.0 0.0 0.00 0.00 0.00 85 1012.6
20260905074532 77 315 0.0 0.0 0.00 0.00 0.00 85 1012.6
20260905074015 77 315 0.0 0.0 0.00 0.00 0.00 85 1012.6
20260905073517 78 315 0.0 0.0 0.00 0.00 0.00 85 1012.6
20260905073030 78 315 0.0 0.0 0.00 0.00 0.00 85 1012.6
20260905072533 78 315 0.0 0.0 0.00 0.00 0.00 85 1012.6
20260905072034 78 315 0.0 0.0 0.00 0.00 0.00 85 1012.6
20260905071546 78 315 0.0 0.0 0.00 0.00 0.00 85 1012.6
20260905071028 78 315 0.0 0.0 0.00 0.00 0.00 85 1012.6
20260905070527 78 315 0.0 0.0 0.00 0.00 0.00 85 1012.5